DLH66M LOWS-EDDF

Flight info

Callsign DLH66M
Flight time N/A
Altitude 30000
Route INROM DCT SIMBA Y700 NENUM T161 DEBHI DEBHI1C
Aircraft A319/M-SDE3FGHIRWY/LB1

Departure

Time 2026-04-28 11:46
Airport Salzburg Airport (LOWS)

Arrival

Time N/A
Airport Frankfurt Main Airport (EDDF)
Time Latitude Longitude Altitude Speed Heading
2026-04-28 11:20 47.79259 12.99816 1420 ft 0 kts 282°
2026-04-28 11:36 47.79258 12.99823 1420 ft 4 kts 282°
2026-04-28 11:36 47.79253 12.99862 1420 ft 4 kts 281°
2026-04-28 11:37 47.79248 12.99902 1420 ft 4 kts 281°
2026-04-28 11:37 47.79242 12.99941 1420 ft 4 kts 287°
2026-04-28 11:37 47.79231 12.99976 1420 ft 4 kts 316°
2026-04-28 11:37 47.79224 12.99985 1420 ft 0 kts 337°
2026-04-28 11:40 47.79248 12.99970 1420 ft 5 kts 337°
2026-04-28 11:40 47.79287 12.99946 1420 ft 6 kts 339°
2026-04-28 11:40 47.79326 12.99970 1420 ft 7 kts 49°
2026-04-28 11:40 47.79348 13.00039 1420 ft 8 kts 68°
2026-04-28 11:41 47.79342 13.00117 1420 ft 8 kts 129°
2026-04-28 11:41 47.79290 13.00153 1420 ft 9 kts 159°
2026-04-28 11:41 47.79237 13.00184 1420 ft 7 kts 156°
2026-04-28 11:41 47.79183 13.00221 1420 ft 10 kts 155°
2026-04-28 11:42 47.79113 13.00266 1420 ft 11 kts 157°
2026-04-28 11:42 47.79040 13.00312 1420 ft 12 kts 157°
2026-04-28 11:42 47.78961 13.00361 1422 ft 13 kts 157°
2026-04-28 11:42 47.78879 13.00413 1420 ft 13 kts 157°
2026-04-28 11:43 47.78796 13.00466 1420 ft 13 kts 156°
2026-04-28 11:43 47.78708 13.00522 1420 ft 14 kts 157°
2026-04-28 11:43 47.78618 13.00579 1420 ft 14 kts 156°
2026-04-28 11:43 47.78526 13.00638 1420 ft 15 kts 156°
2026-04-28 11:44 47.78431 13.00699 1420 ft 15 kts 156°
2026-04-28 11:44 47.78333 13.00760 1421 ft 15 kts 157°
2026-04-28 11:44 47.78238 13.00826 1421 ft 15 kts 148°
2026-04-28 11:44 47.78183 13.00943 1421 ft 14 kts 98°
2026-04-28 11:45 47.78209 13.01069 1424 ft 9 kts 65°
2026-04-28 11:45 47.78247 13.01082 1421 ft 3 kts 335°
2026-04-28 11:45 47.78261 13.01073 1419 ft 19 kts 336°
2026-04-28 11:45 47.78641 13.00830 1421 ft 96 kts 337°
2026-04-28 11:46 47.79454 13.00321 1479 ft 148 kts 338°
2026-04-28 11:46 47.80384 12.99754 2113 ft 146 kts 338°
2026-04-28 11:46 47.81355 12.99153 2761 ft 154 kts 341°
2026-04-28 11:46 47.82474 12.98913 3101 ft 176 kts 12°
2026-04-28 11:47 47.83599 12.99774 3471 ft 199 kts 39°
2026-04-28 11:47 47.84764 13.01109 4000 ft 224 kts 39°
2026-04-28 11:47 47.86070 13.02586 4634 ft 247 kts 39°
2026-04-28 11:47 47.87498 13.04170 5412 ft 262 kts 37°
2026-04-28 11:48 47.88990 13.05787 6290 ft 270 kts 36°
2026-04-28 11:48 47.90535 13.07440 7188 ft 277 kts 35°
2026-04-28 11:48 47.92117 13.09133 8145 ft 282 kts 35°
2026-04-28 11:48 47.93724 13.10859 9125 ft 287 kts 35°
2026-04-28 11:49 47.95356 13.12622 10051 ft 293 kts 34°
2026-04-28 11:49 47.97075 13.14474 10535 ft 316 kts 33°
2026-04-28 11:49 47.99068 13.16003 11127 ft 327 kts 17°
2026-04-28 11:49 48.01282 13.16720 11918 ft 331 kts
2026-04-28 11:50 48.03590 13.16551 12774 ft 332 kts 346°
2026-04-28 11:50 48.05786 13.15477 13624 ft 333 kts 332°
2026-04-28 11:50 48.07846 13.13839 14417 ft 337 kts 329°
2026-04-28 11:50 48.09911 13.12166 15212 ft 339 kts 329°
2026-04-28 11:51 48.11997 13.10477 16001 ft 342 kts 329°
2026-04-28 11:51 48.14099 13.08779 16811 ft 344 kts 329°
2026-04-28 11:51 48.16214 13.07071 17601 ft 347 kts 329°
2026-04-28 11:51 48.18350 13.05346 18366 ft 350 kts 329°
2026-04-28 11:52 48.20481 13.03630 19048 ft 353 kts 329°